TimePST,TemperatureF,Dew PointF,Humidity,Sea Level PressureIn,VisibilityMPH,Wind Direction,Wind SpeedMPH,Gust SpeedMPH,PrecipitationIn,Events,Conditions,WindDirDegrees,DateUTC
12:55 AM,24.1,19.0,81,30.58,10.0,ESE,4.6,-,N/A,,Overcast,120,2013-12-09 08:55:00
1:55 AM,24.1,18.0,77,30.56,10.0,East,3.5,-,N/A,,Overcast,90,2013-12-09 09:55:00
2:55 AM,25.0,19.0,78,30.57,10.0,Calm,Calm,-,N/A,,Overcast,0,2013-12-09 10:55:00
3:55 AM,26.1,19.9,78,30.56,10.0,ESE,5.8,-,N/A,,Overcast,110,2013-12-09 11:55:00
4:55 AM,26.1,19.9,78,30.54,10.0,ESE,5.8,-,N/A,,Overcast,120,2013-12-09 12:55:00
5:55 AM,27.0,21.0,78,30.53,10.0,East,6.9,-,N/A,,Overcast,100,2013-12-09 13:55:00
6:08 AM,27.0,19.9,75,30.54,10.0,East,4.6,-,N/A,,Overcast,100,2013-12-09 14:08:00
6:45 AM,27.0,19.9,75,30.54,10.0,East,3.5,-,N/A,,Overcast,100,2013-12-09 14:45:00
6:55 AM,27.0,21.0,78,30.54,10.0,ESE,4.6,-,N/A,,Overcast,110,2013-12-09 14:55:00
7:23 AM,28.0,21.0,75,30.54,10.0,East,5.8,-,N/A,,Overcast,100,2013-12-09 15:23:00
7:55 AM,28.0,21.0,75,30.54,5.0,East,5.8,-,0.00,Snow,Light Snow,100,2013-12-09 15:55:00
8:37 AM,28.0,21.9,78,30.55,6.0,East,4.6,-,0.00,,Haze,100,2013-12-09 16:37:00
8:48 AM,28.0,23.0,81,30.55,1.8,East,4.6,-,0.00,Snow,Light Snow,80,2013-12-09 16:48:00
8:55 AM,28.0,23.0,81,30.55,1.2,ESE,3.5,-,0.00,Snow,Light Snow,110,2013-12-09 16:55:00
9:02 AM,28.0,23.0,81,30.55,1.0,ESE,3.5,-,0.00,Snow,Light Snow,120,2013-12-09 17:02:00
9:17 AM,28.0,24.1,85,30.56,1.5,East,3.5,-,0.01,Snow,Light Snow,90,2013-12-09 17:17:00
9:43 AM,28.0,25.0,88,30.56,1.2,East,4.6,-,0.01,Snow,Light Snow,90,2013-12-09 17:43:00
9:50 AM,28.4,24.8,86,30.56,2.0,East,4.6,-,0.01,Snow,Light Snow,100,2013-12-09 17:50:00
9:55 AM,28.0,25.0,88,30.56,1.8,ESE,4.6,-,0.01,Snow,Light Snow,110,2013-12-09 17:55:00
10:04 AM,28.0,25.0,88,30.56,1.2,ESE,6.9,-,0.00,Snow,Light Snow,110,2013-12-09 18:04:00
10:07 AM,28.0,25.0,88,30.56,2.0,East,5.8,-,0.00,Snow,Light Snow,100,2013-12-09 18:07:00
10:16 AM,28.0,25.0,88,30.56,5.0,ESE,6.9,-,0.00,,Overcast,110,2013-12-09 18:16:00
10:55 AM,28.9,26.1,89,30.56,8.0,East,4.6,-,0.00,,Overcast,80,2013-12-09 18:55:00
11:05 AM,30.0,26.1,85,30.56,9.0,East,4.6,-,N/A,,Overcast,90,2013-12-09 19:05:00
11:55 AM,30.0,26.1,85,30.55,9.0,East,6.9,-,N/A,,Overcast,90,2013-12-09 19:55:00
12:02 PM,30.0,26.1,85,30.55,9.0,East,5.8,-,N/A,,Overcast,90,2013-12-09 20:02:00
12:23 PM,30.9,26.1,82,30.54,10.0,ENE,4.6,-,N/A,,Overcast,70,2013-12-09 20:23:00
12:55 PM,30.9,26.1,82,30.54,10.0,East,5.8,-,N/A,,Overcast,80,2013-12-09 20:55:00
1:47 PM,30.9,26.1,82,30.54,7.0,East,5.8,-,0.00,,Overcast,100,2013-12-09 21:47:00
1:55 PM,30.9,26.1,82,30.54,7.0,East,5.8,-,0.00,,Overcast,100,2013-12-09 21:55:00
2:24 PM,30.0,26.1,85,30.53,7.0,East,5.8,-,N/A,,Overcast,90,2013-12-09 22:24:00
2:55 PM,30.9,27.0,85,30.54,4.0,East,4.6,-,0.00,,Overcast,90,2013-12-09 22:55:00
3:51 PM,30.2,26.6,86,30.53,6.0,East,4.6,-,0.01,,Overcast,100,2013-12-09 23:51:00
3:55 PM,30.0,27.0,88,30.53,7.0,East,4.6,-,0.01,,Overcast,90,2013-12-09 23:55:00
4:12 PM,30.0,27.0,88,30.53,5.0,East,5.8,-,0.00,,Overcast,100,2013-12-10 00:12:00
4:22 PM,30.9,27.0,85,30.52,3.0,East,4.6,-,0.01,Rain,Light Freezing Rain,100,2013-12-10 00:22:00
4:30 PM,30.9,28.0,89,30.52,2.0,East,4.6,-,0.01,Rain,Light Freezing Rain,90,2013-12-10 00:30:00
4:34 PM,30.9,28.0,89,30.52,3.0,ESE,3.5,-,0.01,Rain,Light Freezing Rain,110,2013-12-10 00:34:00
4:47 PM,30.0,28.0,92,30.53,7.0,East,5.8,-,0.01,,Overcast,90,2013-12-10 00:47:00
4:55 PM,30.0,28.0,92,30.53,6.0,East,4.6,-,0.01,,Overcast,100,2013-12-10 00:55:00
5:55 PM,30.0,28.0,92,30.51,8.0,ESE,6.9,-,N/A,,Overcast,120,2013-12-10 01:55:00
6:40 PM,30.0,28.0,92,30.51,8.0,East,4.6,-,N/A,,Overcast,100,2013-12-10 02:40:00
6:55 PM,30.0,28.0,92,30.51,8.0,ESE,3.5,-,N/A,,Overcast,110,2013-12-10 02:55:00
7:06 PM,30.0,28.0,92,30.51,7.0,East,3.5,-,N/A,,Overcast,100,2013-12-10 03:06:00
7:55 PM,27.0,27.0,100,30.51,7.0,East,4.6,-,0.00,,Overcast,100,2013-12-10 03:55:00
8:22 PM,30.9,28.9,92,30.52,6.0,ESE,3.5,-,N/A,,Overcast,110,2013-12-10 04:22:00
8:51 PM,30.2,28.4,93,30.51,2.5,ESE,4.6,-,0.00,Rain,Light Freezing Rain,110,2013-12-10 04:51:00
8:55 PM,30.0,28.9,96,30.51,2.5,ESE,4.6,-,0.00,Rain,Light Freezing Rain,110,2013-12-10 04:55:00
9:06 PM,30.0,28.9,96,30.51,4.0,East,4.6,-,0.00,,Overcast,100,2013-12-10 05:06:00
9:55 PM,28.9,28.0,96,30.51,5.0,East,3.5,-,0.00,,Overcast,90,2013-12-10 05:55:00
10:27 PM,26.1,26.1,100,30.51,3.0,Calm,Calm,-,N/A,,Overcast,0,2013-12-10 06:27:00
10:34 PM,28.0,28.0,100,30.51,1.8,Calm,Calm,-,N/A,,Overcast,0,2013-12-10 06:34:00
10:41 PM,27.0,27.0,100,30.51,1.5,ESE,3.5,-,0.01,Rain,Light Freezing Rain,110,2013-12-10 06:41:00
10:55 PM,30.0,30.0,100,30.51,2.0,SE,4.6,-,0.01,Rain,Light Freezing Rain,130,2013-12-10 06:55:00
10:59 PM,30.0,30.0,100,30.52,2.5,Calm,Calm,-,0.00,,Overcast,0,2013-12-10 06:59:00
11:08 PM,28.0,28.0,100,30.51,3.0,East,3.5,-,0.00,,Overcast,100,2013-12-10 07:08:00
11:55 PM,27.0,27.0,100,30.51,5.0,East,4.6,-,0.00,,Overcast,100,2013-12-10 07:55:00